www.pogodaiklimat.ru

Погода и климат >> Архив погоды >> Бразилия >> Минас-Жерайс >> Уберландия


ПОГОДА в Уберландии

  • Прогноз погоды в Уберландии
  • Монитор погоды в Уберландии

АРХИВ ПОГОДЫ в Уберландии

Время (UTC), дата Ветер
(напр.,м/с)
 
Видим.   Явления Облачность Т
(С)
Тd
(С)
f
(%)
Тe
(С)
Тes
(С)
Комфортность P
(гПа)
Po
(гПа)
Тmin
(С)
Tmax
(С)
R
(мм)
R24
(мм)
S
(см)
01 13.07 ЮВ 1
{2}
н/о н/о +20.5 +8.3 45 +23 +23 комфорт 1018.9 920.3
02 13.07 ЮВ 1
{2}
н/о н/о +20.5 +7.8 44 +23 +23 комфорт 1018.8 920.2
03 13.07 ЮВ 1
{2}
н/о н/о +21.8 +6.7 38 +23 +23 комфорт 1017.9 919.8
05 13.07 В 1
{2}
н/о н/о +19.5 +7.6 46 +21 +21 комфорт 1018.2 919.3
06 13.07 В 1
{2}
н/о н/о +18.7 +7.8 49 +21 +21 комфорт 1018.3 919.1
08 13.07 В 1
{2}
н/о н/о +18.2 +7.4 49 +19 +19 1018.2 918.9
10 13.07 В 2
{2}
н/о н/о +18.1 +8.2 52 +19 +19 1019.2 919.8
11 13.07 СВ 1
{2}
н/о н/о +20.1 +8.7 48 +23 +23 комфорт 1019.3 920.5
12 13.07 СВ 1
{3}
н/о н/о +23.7 +7.9 36 +24 +24 комфорт 1018.5 920.9
15 13.07
{3}
н/о н/о +27.7 +7.8 28 1016.9 920.7
19 13.07 СЗ 1
{3}
н/о н/о +29.2 +6.4 24 +28 +28 жарко 1013.2 917.8
20 13.07 С 1
{3}
н/о н/о +28.1 +5.9 24 +27 +27 жарко 1013.7 917.9
21 13.07 СЗ 1
{3}
н/о н/о +26.7 +6.5 28 +26 +26 жарко 1014.5 918.2
05 14.07 СВ 1
{2}
н/о н/о +19.5 +8.9 50 +22 +22 комфорт 1017.5 918.7
07 14.07 СВ 1
{1}
н/о н/о +18.5 +9.1 54 +20 +20 1017.2 918.1
09 14.07 штиль 0
{1}
н/о н/о +16.5 +9.8 65 +16 +16 1018.5 918.6
11 14.07 Ю 1
{2}
н/о н/о +19.1 +9.4 53 +21 +21 комфорт 1019.0 919.9
12 14.07 З 1
{2}
н/о н/о +21.7 +10.4 49 +23 +23 комфорт 1018.5 920.3
13 14.07 С 1
{3}
н/о н/о +25.1 +7.2 32 +25 +25 комфорт 1017.7 920.6
21 14.07 СЗ 1
{3}
н/о н/о +26.7 +5.2 25 +26 +26 жарко 1013.5 917.3
22 14.07 С 1
{2}
н/о н/о +24.5 +6.0 30 +24 +24 комфорт 1014.7 917.7
07 15.07 В 2
{2}
н/о н/о +19.7 +6.9 43 +21 +21 комфорт 1015.9 917.3
11 15.07 В 1
{3}
н/о н/о +21.2 +6.4 38 +22 +22 комфорт 1016.3 918.1
12 15.07 С 1
{2}
н/о н/о +24.3 +6.0 31 +24 +24 комфорт 1016.1 918.9
13 15.07
{3}
н/о н/о +25.2 +5.5 28 1016.1 919.2
14 15.07 С 2
{4}
н/о н/о +26.1 +4.5 25 +25 +25 комфорт 1015.9 919.3
22 15.07 штиль 0
{2}
н/о н/о +24.2 +6.0 31 +24 +24 комфорт 1014.3 917.3
00 16.07 В 1
{1}
н/о н/о +23.1 +5.6 32 +23 +23 комфорт 1015.3 917.8
03 16.07 В 1
{1}
н/о н/о +21.5 +5.4 35 +22 +22 комфорт 1015.7 917.7
04 16.07 штиль 0
{1}
н/о н/о +21.1 +5.6 36 +22 +22 комфорт 1015.5 917.4
10 16.07 ЮВ 1
{3}
н/о н/о +16.4 +12.1 76 +18 +18 1018.6 918.7
12 16.07 ЮВ 1
{2}
н/о н/о +20.6 +11.3 55 +24 +24 комфорт 1018.6 920.0
21 16.07 ЮЗ 1
{3}
н/о н/о +23.9 +10.5 43 +25 +25 комфорт 1015.9 918.6
22 16.07 Ю 1
{3}
н/о н/о +22.3 +11.7 51 +25 +25 комфорт 1016.7 918.8
23 16.07 Ю 1
{3}
н/о н/о +20.7 +11.9 57 +24 +24 комфорт 1018.0 919.5
00 17.07 Ю 1
{2}
н/о н/о +19.6 +11.9 61 +23 +23 комфорт 1019.0 920.1
01 17.07 Ю 1
{2}
н/о н/о +18.8 +11.9 64 +21 +21 комфорт 1019.8 920.5
02 17.07 Ю 1
{2}
н/о н/о +18.5 +11.8 65 +21 +21 комфорт 1020.0 920.6
03 17.07 Ю 1
{2}
н/о н/о +18.5 +11.9 65 +21 +21 комфорт 1020.0 920.6
06 17.07 ЮВ 1
{2}
н/о н/о +16.6 +11.1 70 +18 +18 1020.0 920.0
07 17.07 штиль 0
{2}
н/о н/о +16.1 +10.9 71 +16 +16 1019.9 919.7
08 17.07 ЮВ 1
{2}
н/о н/о +15.5 +11.0 75 +16 +16 1020.4 920.0
09 17.07 ЮВ 1
{3}
н/о н/о +15.6 +11.2 75 +16 +16 1020.5 920.1
10 17.07 ЮВ 1
{3}
н/о н/о +15.8 +11.1 74 +16 +16 1021.2 920.8
11 17.07 ЮВ 1
{3}
н/о н/о +16.7 +11.1 70 +18 +18 1021.6 921.5
12 17.07 ЮВ 1
{3}
н/о н/о +18.5 +11.4 63 +20 +20 1022.0 922.4
16 17.07 С 1
{3}
н/о н/о +25.8 +9.4 35 +26 +26 жарко 1018.1 921.2
17 17.07 З 1
{3}
н/о н/о +26.9 +8.5 31 +27 +27 жарко 1017.0 920.5
18 17.07 ЮВ 1
{3}
н/о н/о +26.6 +7.9 31 +27 +27 жарко 1016.7 920.2
19 17.07 ЮЗ 1
{3}
н/о н/о +26.2 +6.2 28 +26 +26 жарко 1016.7 920.1
21 17.07 Ю 1
{3}
н/о н/о +22.9 +7.5 37 +24 +24 комфорт 1018.7 920.8
22 17.07 Ю 2
{3}
н/о н/о +20.3 +8.1 45 +22 +22 комфорт 1019.9 921.1
23 17.07 Ю 1
{3}
н/о н/о +19.1 +7.8 48 +21 +21 комфорт 1021.0 921.7
00 18.07 Ю 1
{3}
н/о н/о +18.2 +7.3 49 +19 +19 1022.0 922.3
01 18.07 Ю 1
{3}
н/о н/о +17.4 +5.9 47 +18 +18 1022.5 922.5
02 18.07 ЮВ 1
{3}
н/о н/о +16.9 +4.6 44 +18 +18 1022.6 922.4
03 18.07 ЮВ 1
{2}
н/о н/о +16.1 +5.3 49 +18 +18 1022.5 922.1
04 18.07 ЮВ 1
{2}
н/о н/о +16.3 +6.8 53 +18 +18 1022.0 921.7
06 18.07 В 2
{4}
н/о н/о +16.1 +9.5 65 +16 +16 1021.2 920.9
07 18.07 В 2
{4}
н/о н/о +15.4 +9.9 70 +16 +16 1021.1 920.6
08 18.07 В 2
{4}
н/о н/о +14.7 +9.9 73 +14 +14 1021.6 920.8
09 18.07 В 2
{4}
н/о н/о +14.2 +9.7 74 +14 +14 1022.1 921.1
10 18.07 В 2
{5}
н/о н/о +14.2 +9.5 73 +14 +14 1022.8 921.7
12 18.07 В 2
{5}
н/о н/о +17.1 +10.2 64 +17 +17 1023.4 923.2
13 18.07 СВ 2
{5}
н/о н/о +19.6 +10.7 56 +22 +22 комфорт 1023.0 923.7
16 18.07 В 2
{5}
н/о н/о +24.9 +11.8 44 +26 +26 жарко 1019.6 922.3
17 18.07 СВ 2
{4}
н/о н/о +25.2 +10.8 40 +26 +26 жарко 1018.9 921.7
21 18.07 СВ 1
{3}
н/о н/о +24.2 +10.6 42 +25 +25 комфорт 1018.6 921.2
22 18.07 В 1
{2}
н/о н/о +22.5 +11.6 50 +25 +25 комфорт 1019.8 921.7
01 19.07 В 1
{2}
н/о н/о +20.4 +11.5 57 +23 +23 комфорт 1022.0 923.0
03 19.07 В 2
{3}
н/о н/о +18.6 +11.4 63 +20 +20 1022.5 922.9
04 19.07 В 2
{4}
н/о н/о +17.8 +11.1 65 +19 +19 1022.6 922.7
05 19.07 В 2
{4}
н/о н/о +17.2 +10.5 65 +18 +18 1022.3 922.3
06 19.07 В 2
{4}
н/о н/о +16.5 +9.9 65 +17 +17 1022.4 922.1
07 19.07 В 2
{4}
н/о н/о +15.8 +9.4 66 +16 +16 1022.6 922.1
08 19.07 В 2
{4}
н/о н/о +15.4 +9.2 67 +16 +16 1023.1 922.4
11 19.07 В 2
{5}
н/о н/о +15.5 +8.3 62 +15 +15 1024.8 924.0
12 19.07 В 2
{5}
н/о н/о +17.0 +9.0 59 +17 +17 1025.2 924.8
13 19.07 СВ 3
{6}
н/о н/о +19.0 +9.0 52 +20 +20 1024.8 925.1
15 19.07 СВ 2
{6}
н/о н/о +22.4 +8.9 42 +24 +24 комфорт 1022.6 924.2
17 19.07 СВ 2
{4}
н/о н/о +24.2 +7.6 35 +25 +25 комфорт 1019.8 922.2
18 19.07 В 2
{4}
н/о н/о +24.1 +7.1 34 +24 +24 комфорт 1019.1 921.6
19 19.07 СВ 1
{4}
н/о н/о +24.3 +6.4 32 +24 +24 комфорт 1018.8 921.4
22 19.07 СВ 1
{2}
н/о н/о +20.0 +7.7 45 +23 +23 комфорт 1021.3 922.3

 

Местоположение метеостанции Уберландия (Минас-Жерайс, Бразилия): широта -18.92 долгота -48.25 высота над уровнем моря 871 м.

В архиве по умолчанию представлена погода в Уберландии за последнюю неделю. Архивные данные за месяц целиком и за предыдущие месяцы, начиная с января 2011 года, Вы можете получить, выбрав интересующий диапазон дат из раскрывающегося списка и нажав кнопку "Ввод!".


*Определитесь, кто Вы:
робот инопланетянин человек

Внимание! Время в таблицах - всемирное. Для получения местного времени необходимо прибавить поправку, которая равна -3 ч.

Смотрите также архив погоды в соседних городах и на ближайших метеорологических станциях:

Погода в Каталане (Гояс, Бразилия) (88 км)
Погода в Каталане (Гояс, Бразилия) (92 км)
Погода в Итумбиаре (Гояс, Бразилия) (115 км)
Погода в Консейсан-дас-Алагоасе (Минас-Жерайс, Бразилия) (119 км)
Погода в Патросиниу (Минас-Жерайс, Бразилия) (134 км)
Погода в Итиютабе (Минас-Жерайс, Бразилия) (135 км)
Погода в Сакраменто (Минас-Жерайс, Бразилия) (137 км)
Погода в Капина-Верде (Минас-Жерайс, Бразилия) (151 км)
Погода в Араше (Минас-Жерайс, Бразилия) (156 км)
Погода в Араше (Минас-Жерайс, Бразилия) (158 км)

Пояснения к столбцам:

Ветер - указаны скорость ветра в м/с - средняя за 10 мин, порывы в срок и между сроками (в фигурных скобках) и направление, откуда дует ветер: С - северный, СВ - северо-восточный, В - восточный, ЮВ - юго-восточный, Ю - южный, ЮЗ - юго-западный, З - западный, СЗ - северо-западный.
Видимость - горизонтальная дальность видимости в метрах или километрах. При видимости от 1 до 10 км при отсутствии осадков обычно наблюдается дымка, при ухудшении видимости до 1 км и менее - туман. В сухую погоду видимость может ухудшаться дымом, пылью или мглою.
Явления - указаны атмосферные явления, наблюдавшиеся в срок или в последний час перед сроком; фигурными скобками обозначены явления, наблюдавшиеся между сроками (за 1-3 часа до срока); квадратными скобками обозначены град или гололедные отложения с указанием их диаметра в мм.
Облачность - указаны через наклонную черту общая и нижняя облачность в баллах и высота нижней границы облаков в метрах; квадратными скобками обозначены формы облаков: Ci - перистые, Cs - перисто-слоистые, Cc - перисто-кучевые, Ac - высококучевые, As - высокослоистые, Sc - слоисто-кучевые, Ns - слоисто-дождевые, Cu - кучевые, Cb - кучево-дождевые. Подробнее классификацию облаков см. в Атласе облаков (PDF).
T - Температура воздуха - температура, измеренная на высоте 2 м над землей.
Td - Температура точки росы - температура, при понижении до которой содержащийся в воздухе водяной пар достигнет насыщения.
f - Относительная влажность воздуха - влажноcть воздуха, измеренная на высоте 2 м над землей.
Te - Эффективная температура - температура, которую ощущает одетый по сезону человек в тени. Характеристика душности погоды. При расчете учитывается влияние влажности воздуха и скорости ветра на теплоощущения человека.
Tes - Эффективная температура на солнце - температура, которую ощущает человек, с поправкой на солнечный нагрев. Характеристика знойности погоды. Зависит от высоты солнца над горизонтом, облачности и скорости ветра. Ночью, в пасмурную погоду, а также при ветре 12 м/с и более поправка равна нулю.
P - Атмосферное давление - приведенное к уровню моря атмосферное давление.
Po - Атмосферное давление - измеренное на уровне метеостанции атмосферное давление.
Tmin - Минимальная температура - минимум температуры воздуха на высоте 2 м над землей.
Tmax - Максимальная температура - максимум температуры воздуха на высоте 2 м над землей.
R - Количество осадков - Количество выпавших осадков за период времени, мм. При наведении курсора мыши на число - период времени, за который выпало указанное количество осадков.
R24 - Количество осадков - Количество выпавших осадков за 24 часа, мм.
S - Снежный покров - Высота снежного покрова, см. При наведении курсора мыши на число - состояние снежного покрова и степень покрытия местности в баллах.